Location: Losili
(4.4086°N, 32.7049°E)
Time: 06:38:02
(UTC+00:00)

Cosmos 2082 - Pass Details

Date: 18 September 2019
Orbit: 834 x 855 km, 71.0° (Epoch: 17 October)

Event Time Altitude Azimuth Distance (km) Brightness Sun altitude
Rises 16:49:56 0° 181° (S) 3,406 6.8 -16.4°
Reaches altitude 10° 16:52:31 10° 173° (S) 2,472 6.0 -17.1°
Maximum altitude 16:57:48 40° 105° (ESE) 1,226 4.0 -18.4°
Enters shadow 17:00:52 23° 49° (NE) 1,750 4.9 -19.2°
